"Pseudo-MPEC" for P10SBxo

Created 2019 Oct 10 21:07:19 UT using Find_Orb

Click here for an explanation of pseudo-MPECs

 
 Astrometry: 
     P10SBxo  C2019 10 08%^4sK7:+1MhY=SAstrometry.xL6]^'EIYw2ifpoeOSyHYj=dj-[F51
     P10SBxo  C2019 10 08.`C,fYj$`5Msf:cS02r`redacted;erbx%cpJT$dwdP1TTKC[y0OF51
     P10SBxo  C2019 10 08b=`N5mclickabl$h/v8YPpC(ZM9i[2=vlY9,-),!DHG6Vy(i)xfeF51
     P10SBxo KC2019 10 09.12504 00 55 45.85 +21 15 58.6    ~A94q       oNEOCP291
     P10SBxo KC2019 10 09YmXHNw4D:ejN$v[a\6,+]buma$6EV05oi7w@B4kfbIcx1y4q^LYZH21
     P10SBxo KC2019 10 09suhere80@nf*^6Mu3mU/(FvDJ9B[81,w7?10:I@4=asUwFQ0n`@PH21
     P10SBxo KC2019 10 09.13860 00 55 45.69 +21 15 16.3    ~A94q 20.7 RoNEOCP291
     P10SBxo KC2019 10 09at1/qlG(Rxsq/)f2$*es_tjhQ8forplI%coMEG%rexplanation5H21
     P10SBxo KC2019 10 09.15218 00 55 45.56 +21 14 34.5    ~A94q       oNEOCP291
     P10SBxo KC2019 10 10.17784 00 55 36.15 +20 20 59.3    ~AA5q 20.5 RoNEOCP291
     P10SBxo KC2019 10 10.19666 00 55 35.88 +20 20 00.8    ~AA5q 20.3 RoNEOCP291
     P10SBxo KC2019 10 10.21538 00 55 35.64 +20 19 02.5    ~AA5q 20.4 RoNEOCP291
     P10SBxo  C2019 10 10.29223 00 55 34.54 +20 15 02.2    ~AA7M 21.1 GVNEOCPI52
     P10SBxo  C2019 10 10.29389 00 55 34.50 +20 14 57.0    ~AA7M 20.4 GVNEOCPI52
     P10SBxo  C2019 10 10.29556 00 55 34.46 +20 14 51.7    ~AA7M 21.0 GVNEOCPI52

Station data:
(291) LPL/Spacewatch II  (N31.961669 W111.599905)  US/Arizona.  Observers J.
   V. Scotti, R. S. McMillan. 1.8-m f/2.7 reflector + CCD.
(F51) Pan-STARRS 1, Haleakala  (N20.707235 W156.255910)  US/Hawaii.
   Observers N. Primak, A. Schultz, S. Watters, J. Thiel, T. Goggia. Measurer
   PS1 Science Consortium. 1.8-m Ritchey-Chrétien + CCD.
(H21) Astronomical Research Observatory, Westfield  (N39.483057 W87.968270)
   US/Illinois. 0.76-m f/3.0 astrograph + CCD.
(I52) Steward Observatory, Mt. Lemmon Station  (N32.442547 W110.788920)
   US/Arizona.  Observers T. A. Pruyne, B. M. Africano, E. J. Christensen, G.
   A. Farneth, D. C. Fuls, A. R. Gibbs, A. D. Grauer, H. Groeller, J. A.
   Johnson, R. A. Kowalski, S. M. Larson, G. J. Leonard, D. Rankin, R. L.
   Seaman, F. C. Shelly. 1.0-m reflector + CCD.

Orbital elements:  P10SBxo
   Perihelion 2019 Jul 25.504701 +/- 0.532 TT = 12:06:46 (JD 2458690.004701)
Epoch 2019 Oct 10.0 TT = JDT 2458766.5   Earth MOID: 0.5511   AutoNEOCP
M  17.43021915 +/- 1.0              (J2000 ecliptic)
n   0.22786000 +/- 0.0125           Peri.  119.18745 +/- 0.7
a   2.65475214 +/- 0.0971           Node   206.56003 +/- 0.10
e   0.4735091 +/- 0.0159            Incl.   30.11054 +/- 0.6
P   4.33                   H 20.4   G  0.15   U  9.8  
q 1.39770264 +/- 0.0111    Q 3.91180165 +/- 0.177
From 15 observations 2019 Oct. 8-10 (42.6 hr); mean residual 0".30
Residuals in arcseconds: 
191008 F51  .18+  .09+    191009 H21  .39-  .03-    191010 291  .04-  .19+    
191008 F51  .14+  .03+    191009 291  .26+  .11-    191010 291  .15+  .19+    
191008 F51  .04+  .09-    191009 H21  .98-  .43-    191010 I52  .20+  .09-    
191009 291  .24+  .04-    191009 291  .79+  .40+    191010 I52  .03-  .10-    
191009 H21  .24-  .19+    191010 291  .27+  .12+    191010 I52  .25-  .17-    

Ephemerides (geocentric):
Date (UTC) HH   RA              Dec         delta   r     elong  mag " sig PA
---- -- -- --  -------------   -----------  ------ ------ -----  --- ---- ---
2019 10 10 21  00 55 29.409   +19 44 44.47  .60019 1.5888 166.8 20.9 .150  74
2019 10 10 22  00 55 29.050   +19 42 34.47  .60032 1.5890 166.9 20.9 .154  71
2019 10 10 23  00 55 28.690   +19 40 24.49  .60045 1.5892 166.9 20.9 .158  68
2019 10 11 00  00 55 28.332   +19 38 14.53  .60058 1.5894 167.0 20.9 .163  65
2019 10 11 01  00 55 27.974   +19 36 04.61  .60071 1.5896 167.0 20.9 .168  63
2019 10 11 02  00 55 27.616   +19 33 54.71  .60084 1.5897 167.0 20.9 .174  60
2019 10 11 03  00 55 27.260   +19 31 44.84  .60097 1.5899 167.1 20.9 .180  58
2019 10 11 04  00 55 26.904   +19 29 34.99  .60111 1.5901 167.1 20.9 .186  55
2019 10 11 05  00 55 26.548   +19 27 25.18  .60124 1.5903 167.2 20.9 .193  53
2019 10 11 06  00 55 26.194   +19 25 15.39  .60137 1.5905 167.2 20.9 .200  51
2019 10 11 07  00 55 25.840   +19 23 05.63  .60150 1.5907 167.3 20.9 .207  48
2019 10 11 08  00 55 25.486   +19 20 55.91  .60164 1.5909 167.3 20.9 .215  46
2019 10 11 09  00 55 25.134   +19 18 46.21  .60177 1.5910 167.4 20.9 .223  44
2019 10 11 10  00 55 24.782   +19 16 36.54  .60191 1.5912 167.4 20.9 .232  43
2019 10 11 11  00 55 24.431   +19 14 26.90  .60204 1.5914 167.4 20.9 .241  41
2019 10 11 12  00 55 24.080   +19 12 17.29  .60218 1.5916 167.5 20.9 .250  39
2019 10 11 13  00 55 23.730   +19 10 07.71  .60232 1.5918 167.5 20.9 .259  38
2019 10 11 14  00 55 23.381   +19 07 58.16  .60245 1.5920 167.6 20.9 .268  36
2019 10 11 15  00 55 23.033   +19 05 48.65  .60259 1.5922 167.6 20.9 .278  35
2019 10 11 16  00 55 22.686   +19 03 39.16  .60273 1.5923 167.7 20.9 .288  33
2019 10 11 17  00 55 22.339   +19 01 29.71  .60287 1.5925 167.7 20.9 .299  32
2019 10 11 18  00 55 21.993   +18 59 20.29  .60301 1.5927 167.7 20.9 .309  31
2019 10 11 19  00 55 21.647   +18 57 10.91  .60315 1.5929 167.8 20.9 .320  29
2019 10 11 20  00 55 21.303   +18 55 01.55  .60329 1.5931 167.8 20.9 .331  28
2019 10 11 21  00 55 20.959   +18 52 52.23  .60343 1.5933 167.9 20.9 .343  27
2019 10 11 22  00 55 20.616   +18 50 42.95  .60357 1.5935 167.9 20.9 .354  26
2019 10 11 23  00 55 20.274   +18 48 33.69  .60371 1.5936 168.0 20.9 .366  25
2019 10 12 00  00 55 19.932   +18 46 24.47  .60385 1.5938 168.0 20.9 .378  24
2019 10 12 01  00 55 19.592   +18 44 15.29  .60400 1.5940 168.0 20.9 .390  23
2019 10 12 02  00 55 19.252   +18 42 06.14  .60414 1.5942 168.1 20.9 .402  22
2019 10 12 03  00 55 18.913   +18 39 57.03  .60429 1.5944 168.1 20.9 .415  21
2019 10 12 04  00 55 18.575   +18 37 47.95  .60443 1.5946 168.2 20.9 .427  21
2019 10 12 05  00 55 18.237   +18 35 38.91  .60458 1.5948 168.2 20.9 .440  20
2019 10 12 06  00 55 17.900   +18 33 29.90  .60472 1.5949 168.2 20.9 .453  19
2019 10 12 07  00 55 17.565   +18 31 20.93  .60487 1.5951 168.3 20.9 .466  18
2019 10 12 08  00 55 17.229   +18 29 12.00  .60501 1.5953 168.3 20.9 .480  18
2019 10 12 09  00 55 16.895   +18 27 03.10  .60516 1.5955 168.4 20.9 .493  17
2019 10 12 10  00 55 16.562   +18 24 54.25  .60531 1.5957 168.4 20.9 .507  16
2019 10 12 11  00 55 16.229   +18 22 45.43  .60546 1.5959 168.4 20.9 .520  16
2019 10 12 12  00 55 15.898   +18 20 36.64  .60561 1.5961 168.5 20.9 .534  15
2019 10 12 13  00 55 15.567   +18 18 27.90  .60576 1.5963 168.5 20.9 .548  14
2019 10 12 14  00 55 15.237   +18 16 19.20  .60591 1.5964 168.6 20.9 .563  14
2019 10 12 15  00 55 14.908   +18 14 10.53  .60606 1.5966 168.6 20.9 .577  13
2019 10 12 16  00 55 14.579   +18 12 01.90  .60621 1.5968 168.6 20.9 .591  13
2019 10 12 17  00 55 14.252   +18 09 53.32  .60636 1.5970 168.7 20.9 .606  12
2019 10 12 18  00 55 13.925   +18 07 44.77  .60651 1.5972 168.7 20.9 .621  11
2019 10 12 19  00 55 13.600   +18 05 36.26  .60667 1.5974 168.7 20.9 .635  11
2019 10 12 20  00 55 13.275   +18 03 27.80  .60682 1.5976 168.8 20.9 .650  10